QPF
0.04 0.06 0.07 0.06 0.06 0.04 0.03 0.03 0.02 0.02 0.01 0.01 0.01 0.00 0.00 0.00 0.00 0.00 0.00 0.00 0.00 0.00 0.00 0.00 0.00 0.01 0.02 0.03 0.03 0.04 0.05 0.05 0.06 0.08 0.08 0.08 0.08 0.08 0.08 0.07 0.05 0.04 0.03 0.03
0.03 0.05 0.04 0.04 0.05 0.04 0.03 0.03 0.02 0.02 0.01 0.01 0.01 0.01 0.00 0.00 0.00 0.00 0.00 0.00 0.00 0.00 0.00 0.00 0.00 0.00 0.01 0.02 0.02 0.03 0.03 0.04 0.04 0.05 0.07 0.09 0.10 0.09 0.09 0.07 0.05 0.04 0.03 0.03
0.03 0.03 0.02 0.02 0.03 0.04 0.03 0.03 0.03 0.02 0.01 0.01 0.01 0.01 0.00 0.00 0.00 0.00 0.00 0.00 0.00 0.00 0.00 0.00 0.00 0.01 0.01 0.01 0.02 0.02 0.02 0.03 0.03 0.04 0.06 0.07 0.07 0.06 0.06 0.06 0.05 0.05 0.03 0.03
0.02 0.01 0.01 0.02 0.02 0.03 0.03 0.02 0.02 0.02 0.02 0.02 0.01 0.01 0.00 0.00 0.00 0.00 0.00 0.00 0.00 0.00 0.00 0.00 0.00 0.01 0.01 0.01 0.03 0.04 0.05 0.04 0.03 0.03 0.03 0.05 0.05 0.06 0.06 0.07 0.07 0.07 0.04 0.03
0.02 0.01 0.01 0.01 0.01 0.02 0.02 0.01 0.01 0.02 0.02 0.02 0.01 0.01 0.00 0.00 0.00 0.00 0.00 0.00 0.00 0.00 0.00 0.00 0.00 0.01 0.01 0.02 0.02 0.03 0.04 0.03 0.03 0.03 0.03 0.03 0.03 0.05 0.05 0.06 0.06 0.06 0.03 0.02
0.01 0.01 0.01 0.01 0.01 0.01 0.01 0.02 0.02 0.03 0.04 0.04 0.01 0.00 0.00 0.00 0.00 0.00 0.00 0.00 0.00 0.00 0.00 0.00 0.00 0.00 0.01 0.01 0.02 0.02 0.03 0.04 0.04 0.03 0.03 0.02 0.02 0.02 0.03 0.03 0.03 0.03 0.02 0.02
0.01 0.01 0.00 0.01 0.01 0.01 0.02 0.04 0.06 0.05 0.05 0.02 0.00 0.00 0.00 0.00 0.00 0.00 0.00 0.00 0.00 0.00 0.00 0.00 0.00 0.00 0.00 0.01 0.01 0.01 0.01 0.02 0.03 0.03 0.02 0.02 0.02 0.02 0.02 0.02 0.02 0.02 0.01 0.01
0.02 0.01 0.01 0.01 0.01 0.02 0.02 0.03 0.07 0.06 0.03 0.01 0.00 0.00 0.00 0.00 0.00 0.00 0.00 0.00 0.00 0.00 0.00 0.00 0.00 0.00 0.00 0.00 0.01 0.01 0.01 0.01 0.01 0.02 0.02 0.02 0.02 0.02 0.01 0.01 0.01 0.01 0.01 0.01
0.02 0.01 0.01 0.00 0.01 0.03 0.03 0.03 0.04 0.05 0.03 0.02 0.01 0.00 0.00 0.00 0.00 0.00 0.00 0.00 0.00 0.00 0.00 0.00 0.00 0.00 0.00 0.00 0.00 0.01 0.01 0.01 0.01 0.01 0.01 0.01 0.01 0.01 0.01 0.01 0.01 0.01 0.00 0.00
0.02 0.02 0.01 0.01 0.01 0.02 0.02 0.03 0.03 0.04 0.04 0.03 0.01 0.00 0.00 0.00 0.00 0.00 0.00 0.00 0.00 0.00 0.00 0.00 0.00 0.00 0.00 0.00 0.00 0.00 0.00 0.00 0.00 0.00 0.00 0.00 0.00 0.00 0.00 0.00 0.00 0.00 0.00 0.00
0.01 0.01 0.01 0.01 0.01 0.02 0.02 0.02 0.03 0.04 0.03 0.03 0.03 0.01 0.00 0.00 0.00 0.00 0.00 0.00 0.00 0.00 0.00 0.00 0.00 0.00 0.00 0.00 0.00 0.00 0.00 0.00 0.00 0.00 0.00 0.00 0.00 0.00 0.00 0.00 0.00 0.00 0.00 0.00
0.02 0.02 0.02 0.01 0.01 0.01 0.02 0.02 0.03 0.05 0.04 0.02 0.03 0.02 0.00 0.00 0.00 0.00 0.00 0.00 0.00 0.00 0.00 0.00 0.00 0.00 0.00 0.00 0.00 0.00 0.00 0.00 0.00 0.00 0.00 0.00 0.00 0.00 0.00 0.00 0.00 0.00 0.00 0.00
0.03 0.03 0.03 0.03 0.02 0.02 0.02 0.02 0.02 0.04 0.05 0.05 0.04 0.02 0.00 0.00 0.00 0.00 0.00 0.00 0.00 0.00 0.00 0.00 0.00 0.00 0.00 0.00 0.00 0.00 0.00 0.00 0.00 0.00 0.00 0.00 0.00 0.00 0.00 0.00 0.00 0.00 0.00 0.00
0.04 0.03 0.03 0.05 0.05 0.03 0.02 0.02 0.02 0.05 0.05 0.03 0.01 0.01 0.01 0.01 0.00 0.00 0.00 0.00 0.00 0.00 0.00 0.00 0.00 0.00 0.00 0.00 0.00 0.00 0.00 0.00 0.00 0.00 0.00 0.00 0.00 0.00 0.00 0.00 0.00 0.00 0.00 0.00
0.03 0.03 0.02 0.01 0.02 0.02 0.02 0.01 0.01 0.02 0.03 0.03 0.01 0.00 0.00 0.00 0.01 0.00 0.00 0.00 0.00 0.00 0.00 0.00 0.00 0.00 0.00 0.00 0.00 0.00 0.00 0.00 0.00 0.00 0.00 0.00 0.00 0.00 0.00 0.00 0.00 0.00 0.00 0.00
0.02 0.02 0.01 0.01 0.00 0.01 0.01 0.01 0.01 0.01 0.01 0.01 0.01 0.00 0.00 0.00 0.00 0.00 0.00 0.00 0.00 0.00 0.00 0.00 0.00 0.00 0.00 0.00 0.00 0.00 0.00 0.00 0.00 0.00 0.00 0.00 0.00 0.00 0.00 0.00 0.00 0.00 0.00 0.00
0.01 0.02 0.02 0.01 0.01 0.01 0.01 0.00 0.00 0.00 0.00 0.01 0.00 0.00 0.00 0.00 0.00 0.00 0.00 0.00 0.00 0.00 0.00 0.00 0.00 0.00 0.00 0.00 0.00 0.00 0.00 0.00 0.00 0.00 0.00 0.00 0.00 0.00 0.00 0.00 0.00 0.00 0.00 0.00
0.01 0.02 0.03 0.03 0.02 0.02 0.00 0.00 0.00 0.00 0.00 0.00 0.00 0.00 0.00 0.00 0.00 0.00 0.00 0.00 0.00 0.00 0.00 0.00 0.00 0.00 0.00 0.00 0.00 0.00 0.00 0.00 0.00 0.00 0.00 0.00 0.00 0.00 0.00 0.00 0.00 0.00 0.00 0.00
0.00 0.02 0.04 0.04 0.03 0.01 0.00 0.00 0.00 0.00 0.00 0.00 0.00 0.00 0.00 0.00 0.00 0.00 0.00 0.00 0.00 0.00 0.00 0.00 0.00 0.00 0.00 0.00 0.00 0.00 0.00 0.00 0.00 0.00 0.00 0.00 0.00 0.00 0.00 0.00 0.00 0.00 0.00 0.00
0.00 0.01 0.04 0.04 0.04 0.02 0.01 0.00 0.00 0.00 0.01 0.00 0.00 0.00 0.00 0.00 0.00 0.00 0.00 0.00 0.00 0.00 0.00 0.00 0.00 0.00 0.00 0.00 0.00 0.00 0.00 0.00 0.00 0.00 0.00 0.00 0.00 0.00 0.00 0.00 0.00 0.00 0.00 0.00
0.01 0.02 0.03 0.03 0.04 0.02 0.00 0.00 0.01 0.02 0.02 0.01 0.00 0.01 0.01 0.01 0.01 0.00 0.00 0.00 0.00 0.00 0.00 0.00 0.00 0.00 0.00 0.00 0.00 0.00 0.00 0.00 0.00 0.00 0.00 0.00 0.00 0.00 0.00 0.00 0.00 0.00 0.00 0.00
0.02 0.03 0.03 0.03 0.05 0.03 0.02 0.01 0.02 0.03 0.02 0.01 0.01 0.01 0.01 0.01 0.01 0.00 0.00 0.00 0.00 0.00 0.00 0.00 0.00 0.00 0.00 0.00 0.00 0.00 0.00 0.00 0.00 0.00 0.00 0.00 0.00 0.00 0.00 0.00 0.00 0.00 0.00 0.00
0.01 0.02 0.04 0.04 0.05 0.04 0.03 0.02 0.02 0.02 0.01 0.01 0.01 0.01 0.01 0.01 0.01 0.01 0.01 0.00 0.00 0.00 0.00 0.00 0.00 0.00 0.00 0.00 0.00 0.00 0.00 0.00 0.00 0.00 0.00 0.00 0.00 0.00 0.00 0.00 0.00 0.00 0.00 0.00
0.01 0.01 0.02 0.02 0.02 0.03 0.03 0.02 0.01 0.01 0.01 0.01 0.01 0.01 0.01 0.01 0.01 0.02 0.01 0.00 0.00 0.00 0.00 0.00 0.00 0.00 0.00 0.00 0.00 0.00 0.00 0.00 0.00 0.00 0.00 0.00 0.00 0.00 0.00 0.00 0.00 0.00 0.00 0.00
0.01 0.01 0.01 0.02 0.02 0.02 0.02 0.02 0.01 0.01 0.01 0.01 0.00 0.00 0.00 0.01 0.01 0.01 0.01 0.01 0.00 0.00 0.01 0.01 0.00 0.00 0.00 0.00 0.00 0.00 0.00 0.00 0.00 0.00 0.00 0.00 0.00 0.00 0.00 0.00 0.00 0.00 0.00 0.00
0.00 0.01 0.02 0.02 0.01 0.01 0.01 0.01 0.01 0.02 0.01 0.01 0.01 0.01 0.01 0.01 0.01 0.01 0.01 0.01 0.01 0.01 0.01 0.01 0.01 0.01 0.00 0.00 0.00 0.00 0.00 0.01 0.01 0.01 0.01 0.01 0.00 0.00 0.00 0.00 0.00 0.01 0.01 0.00
MSLP
1015.94 1015.55 1014.95 1014.25 1013.60 1013.12 1012.90 1012.96 1013.26 1013.72 1014.19 1014.57 1014.74 1014.68 1014.38 1013.90 1013.35 1012.83 1012.43 1012.21 1012.18 1012.31 1012.55 1012.84 1013.12 1013.37 1013.57 1013.75 1013.94 1014.17 1014.47 1014.84 1015.26 1015.70 1016.12 1016.49 1016.79 1017.03 1017.21 1017.37 1017.53 1017.72 1017.95 1018.21
1015.98 1015.56 1014.94 1014.23 1013.56 1013.06 1012.81 1012.85 1013.13 1013.55 1013.99 1014.34 1014.49 1014.41 1014.09 1013.60 1013.04 1012.52 1012.12 1011.89 1011.86 1011.99 1012.24 1012.54 1012.83 1013.09 1013.31 1013.51 1013.72 1013.97 1014.29 1014.68 1015.12 1015.58 1016.02 1016.40 1016.72 1016.96 1017.15 1017.31 1017.48 1017.67 1017.90 1018.17
1015.95 1015.53 1014.91 1014.22 1013.57 1013.09 1012.85 1012.87 1013.12 1013.50 1013.88 1014.16 1014.24 1014.10 1013.73 1013.20 1012.61 1012.07 1011.66 1011.44 1011.41 1011.56 1011.82 1012.15 1012.47 1012.77 1013.02 1013.26 1013.50 1013.78 1014.12 1014.53 1014.98 1015.45 1015.90 1016.30 1016.62 1016.89 1017.09 1017.28 1017.47 1017.68 1017.92 1018.19
1015.86 1015.45 1014.87 1014.24 1013.66 1013.23 1013.03 1013.06 1013.28 1013.59 1013.89 1014.06 1014.04 1013.79 1013.33 1012.73 1012.09 1011.51 1011.09 1010.87 1010.85 1011.02 1011.33 1011.69 1012.06 1012.41 1012.72 1013.00 1013.28 1013.59 1013.95 1014.37 1014.82 1015.29 1015.74 1016.15 1016.50 1016.79 1017.03 1017.26 1017.49 1017.74 1018.01 1018.30
1015.69 1015.32 1014.83 1014.29 1013.81 1013.48 1013.34 1013.39 1013.58 1013.83 1014.02 1014.06 1013.90 1013.51 1012.93 1012.23 1011.52 1010.90 1010.45 1010.23 1010.23 1010.43 1010.78 1011.20 1011.63 1012.04 1012.41 1012.75 1013.07 1013.41 1013.78 1014.20 1014.65 1015.12 1015.57 1015.98 1016.35 1016.68 1016.98 1017.26 1017.55 1017.86 1018.17 1018.49
1015.44 1015.14 1014.75 1014.34 1014.00 1013.78 1013.72 1013.81 1013.98 1014.15 1014.23 1014.13 1013.81 1013.28 1012.56 1011.76 1010.97 1010.30 1009.83 1009.61 1009.63 1009.86 1010.26 1010.74 1011.24 1011.71 1012.14 1012.53 1012.90 1013.26 1013.65 1014.06 1014.50 1014.95 1015.40 1015.82 1016.22 1016.59 1016.95 1017.30 1017.66 1018.03 1018.40 1018.74
1015.10 1014.89 1014.62 1014.37 1014.17 1014.08 1014.11 1014.23 1014.38 1014.48 1014.45 1014.21 1013.75 1013.08 1012.25 1011.35 1010.50 1009.79 1009.31 1009.09 1009.13 1009.40 1009.84 1010.37 1010.93 1011.46 1011.95 1012.38 1012.79 1013.17 1013.57 1013.98 1014.40 1014.84 1015.29 1015.72 1016.15 1016.56 1016.98 1017.40 1017.83 1018.26 1018.68 1019.06
1014.68 1014.57 1014.44 1014.33 1014.28 1014.31 1014.42 1014.57 1014.70 1014.74 1014.60 1014.25 1013.67 1012.90 1011.98 1011.03 1010.15 1009.44 1008.96 1008.76 1008.83 1009.12 1009.59 1010.16 1010.75 1011.33 1011.86 1012.33 1012.76 1013.17 1013.57 1013.98 1014.40 1014.83 1015.28 1015.72 1016.17 1016.63 1017.09 1017.57 1018.05 1018.54 1018.99 1019.40
1014.22 1014.21 1014.19 1014.21 1014.29 1014.42 1014.59 1014.76 1014.86 1014.84 1014.62 1014.19 1013.54 1012.71 1011.77 1010.82 1009.95 1009.27 1008.83 1008.66 1008.75 1009.07 1009.55 1010.13 1010.74 1011.33 1011.88 1012.38 1012.83 1013.25 1013.67 1014.08 1014.51 1014.95 1015.40 1015.86 1016.32 1016.81 1017.30 1017.81 1018.33 1018.83 1019.31 1019.72
1013.79 1013.84 1013.92 1014.04 1014.20 1014.40 1014.60 1014.76 1014.83 1014.75 1014.48 1014.00 1013.32 1012.49 1011.58 1010.69 1009.89 1009.28 1008.90 1008.78 1008.90 1009.23 1009.70 1010.27 1010.86 1011.45 1011.99 1012.50 1012.97 1013.41 1013.84 1014.28 1014.72 1015.18 1015.64 1016.11 1016.59 1017.09 1017.59 1018.11 1018.63 1019.13 1019.60 1020.00
1013.43 1013.54 1013.67 1013.84 1014.04 1014.25 1014.43 1014.56 1014.58 1014.44 1014.13 1013.64 1012.98 1012.21 1011.39 1010.61 1009.93 1009.42 1009.13 1009.07 1009.21 1009.54 1009.99 1010.51 1011.06 1011.61 1012.14 1012.64 1013.12 1013.58 1014.05 1014.52 1015.00 1015.49 1015.97 1016.46 1016.95 1017.43 1017.93 1018.42 1018.91 1019.39 1019.82 1020.19
1013.21 1013.32 1013.47 1013.64 1013.83 1014.00 1014.14 1014.19 1014.14 1013.95 1013.61 1013.13 1012.53 1011.85 1011.16 1010.52 1009.99 1009.62 1009.42 1009.42 1009.58 1009.89 1010.29 1010.75 1011.24 1011.74 1012.23 1012.72 1013.21 1013.70 1014.21 1014.74 1015.27 1015.80 1016.32 1016.82 1017.31 1017.79 1018.26 1018.71 1019.16 1019.58 1019.97 1020.31
1013.12 1013.22 1013.34 1013.47 1013.60 1013.70 1013.74 1013.70 1013.57 1013.31 1012.95 1012.49 1011.95 1011.39 1010.85 1010.37 1010.00 1009.76 1009.67 1009.72 1009.89 1010.17 1010.51 1010.90 1011.31 1011.74 1012.19 1012.66 1013.16 1013.70 1014.26 1014.85 1015.44 1016.03 1016.59 1017.13 1017.63 1018.09 1018.53 1018.94 1019.34 1019.71 1020.05 1020.35
1013.15 1013.20 1013.27 1013.33 1013.37 1013.36 1013.29 1013.14 1012.90 1012.59 1012.20 1011.76 1011.30 1010.85 1010.45 1010.13 1009.90 1009.79 1009.78 1009.87 1010.04 1010.27 1010.55 1010.85 1011.18 1011.55 1011.96 1012.42 1012.93 1013.51 1014.13 1014.79 1015.46 1016.11 1016.74 1017.31 1017.83 1018.29 1018.71 1019.09 1019.44 1019.77 1020.08 1020.35
1013.25 1013.24 1013.24 1013.21 1013.15 1013.02 1012.83 1012.56 1012.22 1011.84 1011.42 1011.00 1010.60 1010.26 1009.98 1009.79 1009.69 1009.67 1009.72 1009.83 1009.98 1010.16 1010.36 1010.59 1010.85 1011.15 1011.53 1011.98 1012.52 1013.14 1013.82 1014.55 1015.30 1016.02 1016.71 1017.33 1017.88 1018.36 1018.78 1019.15 1019.49 1019.80 1020.09 1020.36
1013.36 1013.29 1013.21 1013.10 1012.93 1012.69 1012.38 1012.00 1011.58 1011.13 1010.69 1010.28 1009.93 1009.66 1009.48 1009.38 1009.36 1009.41 1009.49 1009.60 1009.72 1009.85 1009.98 1010.13 1010.33 1010.59 1010.94 1011.39 1011.95 1012.61 1013.36 1014.16 1014.97 1015.77 1016.51 1017.19 1017.79 1018.31 1018.76 1019.14 1019.49 1019.81 1020.11 1020.41
1013.44 1013.32 1013.17 1012.98 1012.72 1012.39 1011.99 1011.53 1011.04 1010.55 1010.09 1009.69 1009.37 1009.15 1009.02 1008.98 1009.00 1009.07 1009.15 1009.24 1009.32 1009.39 1009.47 1009.56 1009.72 1009.95 1010.29 1010.74 1011.33 1012.02 1012.82 1013.67 1014.54 1015.39 1016.20 1016.94 1017.59 1018.16 1018.66 1019.09 1019.48 1019.83 1020.17 1020.50
1013.49 1013.32 1013.12 1012.87 1012.56 1012.16 1011.70 1011.19 1010.67 1010.15 1009.69 1009.30 1009.00 1008.80 1008.69 1008.66 1008.69 1008.74 1008.81 1008.86 1008.89 1008.91 1008.94 1009.01 1009.13 1009.36 1009.69 1010.16 1010.76 1011.49 1012.30 1013.18 1014.09 1014.98 1015.84 1016.62 1017.33 1017.96 1018.52 1019.02 1019.46 1019.87 1020.26 1020.62
1013.54 1013.33 1013.10 1012.81 1012.46 1012.04 1011.55 1011.03 1010.50 1009.99 1009.54 1009.16 1008.87 1008.68 1008.57 1008.53 1008.53 1008.54 1008.56 1008.56 1008.55 1008.53 1008.53 1008.58 1008.71 1008.93 1009.28 1009.76 1010.37 1011.10 1011.93 1012.81 1013.72 1014.63 1015.50 1016.32 1017.07 1017.76 1018.38 1018.94 1019.45 1019.91 1020.35 1020.75
1013.65 1013.42 1013.15 1012.84 1012.48 1012.05 1011.57 1011.06 1010.55 1010.07 1009.64 1009.29 1009.01 1008.81 1008.69 1008.61 1008.56 1008.52 1008.48 1008.43 1008.38 1008.34 1008.33 1008.38 1008.52 1008.77 1009.13 1009.62 1010.24 1010.95 1011.76 1012.62 1013.50 1014.39 1015.25 1016.07 1016.85 1017.57 1018.24 1018.85 1019.41 1019.93 1020.40 1020.82
1013.89 1013.62 1013.33 1013.00 1012.62 1012.20 1011.75 1011.27 1010.80 1010.37 1009.98 1009.65 1009.39 1009.18 1009.03 1008.91 1008.81 1008.71 1008.61 1008.52 1008.44 1008.38 1008.38 1008.45 1008.62 1008.89 1009.27 1009.77 1010.37 1011.06 1011.82 1012.63 1013.46 1014.29 1015.11 1015.91 1016.68 1017.42 1018.11 1018.75 1019.35 1019.89 1020.38 1020.80
1014.28 1013.97 1013.65 1013.29 1012.91 1012.49 1012.06 1011.63 1011.21 1010.82 1010.47 1010.18 1009.93 1009.72 1009.54 1009.38 1009.22 1009.07 1008.93 1008.80 1008.70 1008.66 1008.67 1008.77 1008.97 1009.27 1009.68 1010.18 1010.76 1011.40 1012.10 1012.83 1013.58 1014.33 1015.09 1015.83 1016.57 1017.28 1017.97 1018.62 1019.22 1019.77 1020.25 1020.66
1014.82 1014.46 1014.08 1013.68 1013.28 1012.86 1012.45 1012.05 1011.67 1011.33 1011.03 1010.76 1010.53 1010.32 1010.12 1009.93 1009.74 1009.55 1009.37 1009.23 1009.13 1009.09 1009.14 1009.28 1009.52 1009.85 1010.27 1010.76 1011.31 1011.91 1012.53 1013.17 1013.82 1014.47 1015.14 1015.81 1016.48 1017.15 1017.80 1018.43 1019.02 1019.55 1020.01 1020.39
1015.44 1015.00 1014.56 1014.11 1013.67 1013.24 1012.82 1012.44 1012.10 1011.80 1011.54 1011.30 1011.08 1010.88 1010.67 1010.46 1010.25 1010.05 1009.86 1009.71 1009.63 1009.62 1009.70 1009.89 1010.16 1010.52 1010.95 1011.43 1011.94 1012.47 1013.01 1013.55 1014.10 1014.65 1015.21 1015.79 1016.39 1016.99 1017.60 1018.19 1018.74 1019.24 1019.66 1020.01
1016.03 1015.51 1014.99 1014.48 1013.99 1013.53 1013.11 1012.73 1012.41 1012.14 1011.90 1011.69 1011.50 1011.31 1011.11 1010.91 1010.70 1010.50 1010.32 1010.20 1010.14 1010.17 1010.29 1010.51 1010.81 1011.19 1011.62 1012.08 1012.55 1013.01 1013.46 1013.91 1014.35 1014.79 1015.26 1015.74 1016.26 1016.79 1017.34 1017.88 1018.39 1018.85 1019.24 1019.55
1016.47 1015.87 1015.28 1014.71 1014.17 1013.67 1013.23 1012.86 1012.54 1012.29 1012.08 1011.90 1011.74 1011.57 1011.40 1011.22 1011.04 1010.87 1010.73 1010.64 1010.62 1010.69 1010.84 1011.09 1011.42 1011.80 1012.21 1012.64 1013.05 1013.45 1013.82 1014.18 1014.52 1014.87 1015.24 1015.64 1016.08 1016.55 1017.03 1017.52 1017.99 1018.41 1018.77 1019.06
Thickness
5523 5523 5524 5535 5544 5551 5556 5562 5568 5579 5591 5589 5589 5597 5609 5623 5628 5632 5638 5645 5651 5658 5667 5672 5675 5677 5679 5680 5681 5683 5683 5684 5685 5683 5681 5680 5679 5679 5679 5678 5677 5676 5674 5674
5520 5521 5532 5541 5545 5550 5553 5556 5563 5574 5584 5585 5585 5592 5606 5617 5624 5631 5636 5641 5647 5652 5657 5662 5666 5669 5671 5673 5674 5676 5677 5677 5678 5677 5677 5676 5674 5673 5672 5671 5669 5668 5667 5666
5520 5528 5538 5541 5541 5545 5551 5554 5559 5564 5572 5580 5579 5582 5597 5612 5623 5630 5636 5641 5646 5649 5651 5654 5657 5661 5663 5665 5667 5669 5670 5670 5671 5670 5669 5668 5665 5664 5663 5662 5660 5659 5658 5657
5524 5531 5535 5537 5540 5544 5544 5557 5559 5561 5559 5560 5570 5565 5591 5607 5614 5623 5629 5635 5640 5646 5649 5650 5652 5654 5655 5658 5660 5661 5662 5662 5662 5662 5661 5658 5656 5655 5655 5654 5653 5651 5650 5649
5523 5528 5530 5532 5538 5543 5544 5553 5554 5555 5554 5554 5565 5563 5584 5605 5607 5617 5626 5631 5637 5641 5644 5646 5647 5648 5649 5649 5650 5651 5651 5652 5653 5653 5653 5651 5649 5648 5647 5646 5644 5642 5641 5639
5525 5530 5531 5533 5539 5542 5544 5546 5547 5548 5544 5538 5560 5560 5576 5598 5610 5618 5625 5629 5633 5636 5638 5640 5640 5641 5640 5639 5639 5640 5640 5641 5642 5643 5643 5642 5640 5639 5637 5635 5634 5632 5631 5630
5522 5527 5530 5533 5532 5536 5537 5530 5524 5524 5525 5538 5567 5565 5580 5607 5617 5620 5621 5623 5626 5629 5630 5631 5630 5630 5630 5629 5628 5629 5630 5630 5631 5632 5632 5631 5630 5628 5626 5625 5624 5622 5620 5618
5517 5518 5529 5532 5532 5530 5531 5529 5523 5524 5531 5546 5565 5564 5586 5610 5615 5618 5619 5619 5619 5620 5622 5623 5623 5622 5621 5620 5619 5619 5619 5619 5619 5620 5620 5620 5619 5617 5615 5613 5612 5610 5608 5606
5523 5523 5534 5534 5534 5532 5530 5528 5534 5527 5533 5537 5551 5573 5590 5603 5605 5608 5609 5610 5611 5612 5614 5615 5614 5613 5612 5611 5610 5610 5609 5608 5608 5608 5608 5607 5606 5604 5602 5601 5599 5597 5595 5594
5528 5522 5528 5530 5529 5529 5529 5530 5525 5520 5523 5532 5552 5563 5572 5585 5591 5596 5597 5599 5601 5604 5605 5606 5605 5604 5603 5602 5601 5600 5599 5598 5597 5597 5596 5595 5593 5592 5590 5588 5586 5584 5582 5581
5526 5518 5521 5523 5522 5524 5522 5523 5525 5525 5527 5527 5537 5555 5578 5582 5586 5587 5588 5590 5592 5594 5595 5595 5594 5594 5593 5592 5591 5590 5589 5588 5586 5585 5583 5582 5580 5578 5577 5575 5573 5571 5569 5568
5524 5518 5513 5522 5531 5531 5528 5528 5525 5516 5521 5529 5528 5544 5576 5576 5579 5580 5580 5583 5585 5586 5586 5586 5585 5584 5582 5581 5580 5579 5579 5577 5576 5574 5572 5570 5568 5565 5563 5561 5560 5558 5557 5555
5521 5512 5505 5513 5519 5522 5522 5525 5526 5521 5516 5518 5521 5538 5565 5567 5569 5571 5572 5573 5574 5576 5577 5576 5575 5574 5573 5571 5571 5570 5568 5567 5565 5564 5561 5559 5557 5554 5552 5549 5548 5546 5544 5542
5518 5510 5505 5508 5515 5514 5513 5518 5520 5513 5507 5513 5524 5536 5551 5555 5557 5559 5562 5564 5566 5568 5568 5568 5567 5566 5565 5564 5563 5562 5560 5558 5556 5554 5551 5549 5546 5544 5541 5539 5536 5534 5532 5530
5512 5506 5508 5512 5517 5517 5513 5515 5516 5510 5511 5509 5523 5532 5542 5547 5549 5551 5554 5557 5559 5561 5562 5562 5560 5559 5558 5557 5556 5554 5552 5549 5547 5544 5542 5539 5537 5534 5531 5528 5525 5522 5520 5519
5510 5505 5504 5505 5514 5514 5511 5515 5516 5515 5516 5516 5519 5526 5539 5541 5543 5544 5546 5549 5551 5553 5555 5556 5555 5554 5553 5552 5550 5547 5544 5541 5539 5535 5532 5530 5526 5523 5520 5517 5514 5511 5509 5507
5506 5501 5493 5494 5507 5506 5500 5517 5517 5517 5521 5519 5517 5526 5532 5533 5536 5537 5539 5541 5543 5546 5548 5549 5550 5549 5549 5548 5546 5542 5538 5534 5531 5527 5524 5521 5517 5513 5510 5507 5504 5501 5499 5496
5500 5495 5486 5485 5490 5481 5510 5520 5519 5518 5520 5521 5521 5523 5525 5527 5530 5532 5533 5534 5536 5539 5541 5542 5543 5544 5544 5543 5541 5536 5532 5527 5523 5519 5516 5512 5509 5505 5501 5497 5494 5491 5489 5486
5500 5490 5481 5477 5477 5490 5509 5512 5511 5508 5509 5513 5512 5515 5518 5521 5521 5521 5524 5526 5527 5529 5531 5533 5535 5536 5536 5535 5533 5529 5524 5519 5515 5512 5508 5505 5501 5497 5492 5488 5485 5482 5479 5476
5495 5487 5475 5472 5470 5478 5499 5502 5505 5500 5496 5499 5502 5503 5505 5508 5503 5508 5513 5516 5517 5518 5520 5523 5525 5527 5526 5525 5524 5520 5515 5511 5508 5505 5502 5498 5494 5489 5485 5481 5477 5474 5470 5467
5482 5476 5469 5465 5465 5479 5489 5492 5492 5482 5480 5487 5490 5491 5492 5493 5493 5498 5503 5505 5506 5508 5511 5513 5515 5515 5515 5515 5514 5510 5507 5504 5502 5498 5494 5489 5485 5481 5477 5473 5469 5466 5462 5459
5479 5471 5468 5466 5462 5469 5479 5480 5475 5471 5476 5478 5479 5481 5483 5485 5489 5492 5494 5496 5497 5498 5501 5502 5501 5502 5503 5504 5503 5500 5497 5495 5492 5489 5485 5480 5477 5473 5469 5465 5461 5458 5455 5452
5483 5477 5470 5467 5469 5472 5472 5469 5467 5466 5466 5467 5468 5471 5474 5476 5479 5482 5485 5487 5488 5489 5489 5489 5489 5489 5490 5491 5491 5489 5487 5485 5482 5479 5475 5472 5469 5465 5462 5458 5454 5451 5448 5446
5477 5474 5466 5462 5469 5467 5465 5462 5459 5458 5457 5458 5459 5462 5465 5466 5469 5472 5475 5476 5478 5479 5479 5479 5479 5479 5479 5480 5480 5479 5478 5476 5473 5470 5467 5464 5461 5457 5454 5451 5449 5446 5444 5441
5465 5461 5454 5451 5455 5455 5456 5450 5448 5448 5448 5449 5450 5452 5455 5457 5459 5462 5464 5467 5468 5470 5469 5470 5470 5470 5470 5470 5470 5470 5469 5467 5464 5462 5459 5457 5454 5451 5448 5446 5444 5442 5441 5439
5456 5450 5442 5441 5442 5437 5439 5439 5438 5438 5439 5440 5442 5444 5447 5450 5452 5455 5457 5458 5460 5460 5461 5461 5461 5461 5461 5461 5461 5460 5459 5458 5456 5454 5452 5450 5447 5444 5442 5439 5437 5436 5435 5434